sat.trackr.live / text

‹ back to catalog

STARLINK-37005

NORAD 68107 · 2026-044G

PAYLOAD ACTIVE UNKNOWN

§ Identity

Operator
Country
US
Launch date
2026-03-08
Launch site
AFWTR
Launch vehicle
Mass (kg)
RCS (m²)

Purposes: comms

External: N2YO · Heavens-Above · Gunter

§ Orbital elements

Epoch: 2026-05-24T20:45:21.885696Z

Period
93.91 min
Inclination
97.2846°
Eccentricity
0.0001801
Mean motion
15.33451313 rev/d
Perigee alt
464.3 km
Apogee alt
466.8 km
Semi-major
6,843.7 km
B*
6.7166e-4
RAAN
105.4440°
Arg perigee
94.5189°
Mean anomaly
265.6260°
Rev number
1,325

§ Raw data

STARLINK-370051 68107U 26044G   26144.86483664  .00021676  00000+0  67166-3 0  99902 68107  97.2846 105.4440 0001801  94.5189 265.6260 15.33451313 13251

JSON: /api/v1/satellites/68107 · /tle

For live sub-satellite position, see the globe view (requires WebGL).

§ Visibility from observer

Set your observer location to see the next 7 days of passes ≥ 10°. The values pass through the URL so the page stays shareable.

No JS? Fill the form by hand. The geolocation button needs JavaScript.